North Vernon, Indiana, United States (47265)
Lat: 39.01N, Lon: 85.62W
Wx Zone: INZ072
Local Info
Past Weather Observations for Saturday, August 30, 2014

NOTE: This archive is for the closest National Weather Service station to North Vernon. Information may differ from the station used for current weather conditions.

Click here for Long-term Archive

Time Weather Temperature Dewpoint Humidity Pressure Winds Precip Visibility
23:53
Overcast
72°F / 22°C 68°F / 20°C 88% 30.04 in
(1017 mb)
S 8.1 mph
(S 13 kph)
- 10SM
22:53
Mostly Cloudy
72°F / 22°C 68°F / 20°C 88% 30.04 in
(1017 mb)
S 9.2 mph
(S 15 kph)
- 10SM
21:53
Partly Cloudy
73°F / 23°C 68°F / 20°C 83% 30.01 in
(1016 mb)
S 10.4 mph
(S 17 kph)
- 10SM
20:53
Partly Cloudy
73°F / 23°C 70°F / 21°C 89% 30.01 in
(1016 mb)
S 10.4 mph
(S 17 kph)
- 10SM
19:53
Clear
75°F / 24°C 70°F / 21°C 83% 30.01 in
(1016 mb)
SSE 9.2 mph
(SSE 15 kph)
- 9SM
18:53
Overcast
77°F / 25°C 70°F / 21°C 79% 30.01 in
(1016 mb)
SW 12.7 mph
(SW 20 kph)
- 8SM
17:53
Partly Cloudy
79°F / 26°C 72°F / 22°C 79% 30.01 in
(1016 mb)
S 5.8 mph
(S 9 kph)
- 9SM
16:53
Clear
79°F / 26°C 72°F / 22°C 79% 29.98 in
(1015 mb)
SSE 12.7 mph
(SSE 20 kph)
- 9SM
15:53
Partly Cloudy
79°F / 26°C 70°F / 21°C 74% 30.01 in
(1016 mb)
S 15 mph
(S 24 kph)
- 10SM
14:53
Partly Cloudy
79°F / 26°C 72°F / 22°C 79% 30.01 in
(1016 mb)
S 13.8 mph
(S 22 kph)
- 10SM
13:53
Partly Cloudy
77°F / 25°C 72°F / 22°C 83% 30.04 in
(1017 mb)
S 13.8 mph
(S 22 kph)
- 10SM
13:24
Partly Cloudy
79°F / 26°C 72°F / 22°C 79% 30.04 in
(1017 mb)
S 15 mph
(S 24 kph)
- 10SM
13:15
Mostly Cloudy
79°F / 26°C 72°F / 22°C 79% 30.04 in
(1017 mb)
S 12.7 mph
(S 20 kph)
- 10SM
12:53
Mostly Cloudy
75°F / 24°C 72°F / 22°C 89% 30.04 in
(1017 mb)
S 17.3 mph
(S 28 kph)
0.00 in
(0.00 mm)
10SM
12:45
Mostly Cloudy
75°F / 24°C 72°F / 22°C 89% 30.04 in
(1017 mb)
S 13.8 mph
(S 22 kph)
0.00 in
(0.00 mm)
10SM
11:53
Overcast
Light Rain
75°F / 24°C 72°F / 22°C 89% 30.04 in
(1017 mb)
S 12.7 mph
(S 20 kph)
0.03 in
(0.76 mm)
7SM
10:53
Mostly Cloudy
Rain
73°F / 23°C 70°F / 21°C 89% 30.04 in
(1017 mb)
SSE 11.5 mph
(SSE 19 kph)
0.03 in
(0.76 mm)
5SM
09:53
Partly Cloudy
73°F / 23°C 68°F / 20°C 83% 30.04 in
(1017 mb)
S 10.4 mph
(S 17 kph)
0.06 in
(1.52 mm)
8SM
08:53
Overcast
Light Rain
73°F / 23°C 66°F / 19°C 78% 30.04 in
(1017 mb)
S 9.2 mph
(S 15 kph)
0.00 in
(0.00 mm)
10SM
07:53
Overcast
Light Rain
72°F / 22°C 66°F / 19°C 83% 30.04 in
(1017 mb)
SSE 6.9 mph
(SSE 11 kph)
0.01 in
(0.25 mm)
10SM
06:53
Overcast
Light Rain
70°F / 21°C 64°F / 18°C 83% 30.04 in
(1017 mb)
S 9.2 mph
(S 15 kph)
0.00 in
(0.00 mm)
3SM
06:50
Overcast
Light Rain
70°F / 21°C 64°F / 18°C 83% 30.04 in
(1017 mb)
S 10.4 mph
(S 17 kph)
0.06 in
(1.52 mm)
1 3/4SM
06:49
Overcast
Heavy Rain
70°F / 21°C 64°F / 18°C 83% 30.04 in
(1017 mb)
S 11.5 mph
(S 19 kph)
0.06 in
(1.52 mm)
1 3/4SM
05:53
Overcast
72°F / 22°C 63°F / 17°C 73% 30.01 in
(1016 mb)
S 8.1 mph
(S 13 kph)
- 10SM
04:53
Mostly Cloudy
72°F / 22°C 63°F / 17°C 73% 30.01 in
(1016 mb)
S 9.2 mph
(S 15 kph)
- 10SM
03:53
Clear
72°F / 22°C 63°F / 17°C 73% 30.01 in
(1016 mb)
S 10.4 mph
(S 17 kph)
- 10SM
02:53
Clear
72°F / 22°C 63°F / 17°C 73% 30.01 in
(1016 mb)
S 8.1 mph
(S 13 kph)
- 10SM
01:53
Partly Cloudy
72°F / 22°C 63°F / 17°C 73% 30.01 in
(1016 mb)
S 6.9 mph
(S 11 kph)
- 10SM
00:53
Clear
73°F / 23°C 63°F / 17°C 69% 30.01 in
(1016 mb)
S 9.2 mph
(S 15 kph)
- 10SM
Time Weather Temperature Dewpoint Humidity Pressure Winds Precip Visibility


Weather for websites

WeatherForYou.com, LLC is not responsible for any damages or problems caused by this service. Current weather conditions are obtained from the closest station including government and personal stations which may have varying degrees of accuracy. Weather forecasts are derived from the NOAA NDFD. Like all things, this site belongs to Jesus Christ... He just trusts me to maintain it. If you have any questions or comments email webmaster@weatherforyou.com

Copyright © 2014, WeatherForYou.com LLC. All rights reserved.